Westminster, MD

4:35 AM EDT on October 17, 2019 (GMT -0400)
Carroll County Regional-Poage

Weather History for KDMW - September, 2019

Change the Weather History Date:

Thursday, September 19, 2019

  Actual Average (KTHV) Record (KTHV)
Temperature  
Mean Temperature 63 °F -  
Max Temperature 75 °F 0 °F 86 °F (2005)
Min Temperature 51 °F - 41 °F (1999)
Degree Days  
Heating Degree Days 2    
Growing Degree Days 13 (Base 50)    
Moisture  
Dew Point 49 °F    
Average Humidity 63    
Maximum Humidity 100    
Minimum Humidity 31    
Precipitation  
Precipitation 0.00 in - - ()
Sea Level Pressure  
Sea Level Pressure 30.32 in    
Wind  
Wind Speed 2 mph (SE)    
Max Wind Speed 6 mph    
Max Gust Speed -    
Visibility 10 miles    
Events      
Averages and records for this station are not official NWS values.
T = Trace of Precipitation, MM = Missing Value Source: NWS Daily Summary

Daily Weather History Graph

Daily Weather History Graph

Search for Another Location

Airport or City:

Astronomy

Sep. 19, 2019 Rise Set
Actual Time 6:52 AM EDT 7:10 PM EDT
Civil Twilight 6:25 AM EDT 7:37 PM EDT
Nautical Twilight 5:54 AM EDT 8:08 PM EDT
Astronomical Twilight 5:21 AM EDT 8:40 PM EDT
Moon 10:19 PM EDT (9/19) 11:52 AM EDT (9/19)
Length of Visible Light 13h 11m
Length of Day
12h 17m
Waning Gibbous, 74% of the Moon is Illuminated
Sep 19
Waning Gibbous
Sep 21
Last Quarter
Sep 28
New
Oct 5
First Quarter
Oct 13
Full

Hourly Weather History & Observations

Time (EDT) Temp. Dew Point Humidity Pressure Visibility Wind Dir Wind Speed Gust Speed Precip Events Conditions
12:00 AM 62.6 °F 53.6 °F 72% 30.29 in 10.0 mi ESE 3.5 mph - N/A   Clear
12:20 AM 60.8 °F 55.4 °F 82% 30.29 in 10.0 mi ESE 4.6 mph - N/A   Clear
12:40 AM 60.8 °F 55.4 °F 82% 30.28 in 10.0 mi ESE 5.8 mph - N/A   Clear
1:00 AM 60.8 °F 55.4 °F 82% 30.29 in 10.0 mi SE 5.8 mph - N/A   Clear
1:20 AM 60.8 °F 55.4 °F 82% 30.29 in 10.0 mi ESE 3.5 mph - N/A   Clear
1:40 AM 59.0 °F 55.4 °F 88% 30.29 in 10.0 mi ESE 4.6 mph - N/A   Clear
2:00 AM 59.0 °F 53.6 °F 82% 30.30 in 10.0 mi Calm Calm - N/A   Clear
2:20 AM 59.0 °F 53.6 °F 82% 30.30 in 10.0 mi ESE 3.5 mph - N/A   Clear
2:40 AM 59.0 °F 53.6 °F 82% 30.30 in 10.0 mi Calm Calm - N/A   Clear
3:20 AM 57.2 °F 53.6 °F 88% 30.30 in 10.0 mi Calm Calm - N/A   Clear
3:40 AM 57.2 °F 51.8 °F 82% 30.31 in 10.0 mi Calm Calm - N/A   Clear
4:00 AM 57.2 °F 51.8 °F 82% 30.31 in 10.0 mi Calm Calm - N/A   Clear
4:20 AM 55.4 °F 51.8 °F 88% 30.32 in 10.0 mi Calm Calm - N/A   Clear
4:40 AM 55.4 °F 51.8 °F 88% 30.32 in 10.0 mi Calm Calm - N/A   Clear
5:00 AM 55.4 °F 51.8 °F 88% 30.31 in 10.0 mi Calm Calm - N/A   Clear
5:20 AM 55.4 °F 51.8 °F 88% 30.32 in 10.0 mi Calm Calm - N/A   Clear
5:40 AM 53.6 °F 51.8 °F 94% 30.32 in 10.0 mi Calm Calm - N/A   Clear
6:00 AM 53.6 °F 51.8 °F 94% 30.32 in 10.0 mi Calm Calm - N/A   Clear
6:20 AM 53.6 °F 51.8 °F 94% 30.32 in 10.0 mi Calm Calm - N/A   Clear
6:40 AM 53.6 °F 51.8 °F 94% 30.32 in 10.0 mi Calm Calm - N/A   Clear
7:00 AM 51.8 °F 50.0 °F 94% 30.33 in 10.0 mi Calm Calm - N/A   Clear
7:20 AM 51.8 °F 51.8 °F 100% 30.33 in 10.0 mi Calm Calm - N/A   Clear
7:40 AM 51.8 °F 50.0 °F 94% 30.33 in 10.0 mi Calm Calm - N/A   Clear
8:00 AM 53.6 °F 51.8 °F 94% 30.34 in 10.0 mi North 3.5 mph - N/A   Clear
8:20 AM 55.4 °F 51.8 °F 88% 30.35 in 10.0 mi Calm Calm - N/A   Clear
8:40 AM 57.2 °F 51.8 °F 82% 30.35 in 10.0 mi NE 3.5 mph - N/A   Clear
9:00 AM 59.0 °F 51.8 °F 77% 30.36 in 10.0 mi East 4.6 mph - N/A   Clear
9:20 AM 60.8 °F 51.8 °F 72% 30.36 in 10.0 mi ESE 3.5 mph - N/A   Clear
9:40 AM 60.8 °F 51.8 °F 72% 30.37 in 10.0 mi ESE 4.6 mph - N/A   Clear
10:00 AM 60.8 °F 50.0 °F 68% 30.37 in 10.0 mi SE 3.5 mph - N/A   Clear
10:20 AM 60.8 °F 50.0 °F 68% 30.36 in 10.0 mi East 4.6 mph - N/A   Clear
10:40 AM 64.4 °F 48.2 °F 56% 30.36 in 10.0 mi Calm Calm - N/A   Clear
11:00 AM 62.6 °F 50.0 °F 63% 30.36 in 10.0 mi Calm Calm - N/A   Clear
11:20 AM 64.4 °F 50.0 °F 59% 30.36 in 10.0 mi SE 4.6 mph - N/A   Clear
11:40 AM 64.4 °F 48.2 °F 56% 30.36 in 10.0 mi SSE 3.5 mph - N/A   Scattered Clouds
12:00 PM 66.2 °F 48.2 °F 52% 30.36 in 10.0 mi Calm Calm - N/A   Scattered Clouds
12:20 PM 66.2 °F 48.2 °F 52% 30.35 in 10.0 mi East 4.6 mph - N/A   Clear
12:40 PM 66.2 °F 46.4 °F 49% 30.35 in 10.0 mi Calm Calm - N/A   Clear
1:00 PM 66.2 °F 46.4 °F 49% 30.34 in 10.0 mi SE 5.8 mph - N/A   Clear
1:20 PM 69.8 °F 44.6 °F 40% 30.34 in 10.0 mi ESE 4.6 mph - N/A   Clear
1:40 PM 69.8 °F 44.6 °F 40% 30.33 in 10.0 mi Calm Calm - N/A   Clear
2:00 PM 69.8 °F 44.6 °F 40% 30.33 in 10.0 mi ENE 4.6 mph - N/A   Clear
2:20 PM 69.8 °F 44.6 °F 40% 30.32 in 10.0 mi Calm Calm - N/A   Clear
2:40 PM 73.4 °F 44.6 °F 36% 30.32 in 10.0 mi SSW 4.6 mph - N/A   Clear
3:00 PM 75.2 °F 44.6 °F 34% 30.30 in 10.0 mi Calm Calm - N/A   Clear
3:20 PM 75.2 °F 44.6 °F 34% 30.30 in 10.0 mi SE 5.8 mph - N/A   Clear
3:40 PM 75.2 °F 44.6 °F 34% 30.30 in 10.0 mi South 4.6 mph - N/A   Clear
4:00 PM 75.2 °F 42.8 °F 31% 30.30 in 10.0 mi East 3.5 mph - N/A   Clear
4:20 PM 73.4 °F 42.8 °F 33% 30.30 in 10.0 mi Calm Calm - N/A   Clear
4:40 PM 75.2 °F 44.6 °F 34% 30.29 in 10.0 mi East 3.5 mph - N/A   Clear
5:00 PM 75.2 °F 44.6 °F 34% 30.30 in 10.0 mi SE 5.8 mph - N/A   Clear
5:20 PM 73.4 °F 44.6 °F 36% 30.30 in 10.0 mi ESE 3.5 mph - N/A   Clear
5:40 PM 75.2 °F 44.6 °F 34% 30.29 in 10.0 mi Calm Calm - N/A   Clear
6:00 PM 75.2 °F 44.6 °F 34% 30.30 in 10.0 mi South 3.5 mph - N/A   Clear
6:20 PM 75.2 °F 44.6 °F 34% 30.31 in 10.0 mi Calm Calm - N/A   Clear
6:40 PM 73.4 °F 44.6 °F 36% 30.31 in 10.0 mi Calm Calm - N/A   Clear
7:00 PM 69.8 °F 44.6 °F 40% 30.30 in 10.0 mi Calm Calm - N/A   Clear
7:20 PM 68.0 °F 46.4 °F 46% 30.30 in 10.0 mi SE 4.6 mph - N/A   Clear
7:40 PM 66.2 °F 46.4 °F 49% 30.30 in 10.0 mi SE 4.6 mph - N/A   Clear
8:00 PM 64.4 °F 46.4 °F 52% 30.30 in 10.0 mi SE 4.6 mph - N/A   Clear
8:20 PM 62.6 °F 46.4 °F 55% 30.30 in 10.0 mi ESE 3.5 mph - N/A   Clear
8:40 PM 62.6 °F 46.4 °F 55% 30.30 in 10.0 mi SE 4.6 mph - N/A   Clear
9:00 PM 62.6 °F 46.4 °F 55% 30.30 in 10.0 mi SSE 3.5 mph - N/A   Clear
9:20 PM 62.6 °F 46.4 °F 55% 30.30 in 10.0 mi SSE 3.5 mph - N/A   Clear
9:40 PM 62.6 °F 46.4 °F 55% 30.30 in 10.0 mi SSE 3.5 mph - N/A   Clear
10:00 PM 60.8 °F 46.4 °F 59% 30.30 in 10.0 mi South 3.5 mph - N/A   Clear
10:20 PM 60.8 °F 46.4 °F 59% 30.30 in 10.0 mi Calm Calm - N/A   Clear
10:40 PM 60.8 °F 46.4 °F 59% 30.30 in 10.0 mi Calm Calm - N/A   Clear
11:00 PM 60.8 °F 48.2 °F 63% 30.30 in 10.0 mi Calm Calm - N/A   Clear
11:20 PM 59.0 °F 48.2 °F 67% 30.30 in 10.0 mi Calm Calm - N/A   Clear
11:40 PM 57.2 °F 48.2 °F 72% 30.29 in 10.0 mi Calm Calm - N/A   Clear